Startpagina
METAR-TAF:

METAR-TAF

Vliegvelden :

Goeree Le, Nederland

Productieplatform

breedte: 51-55-33N, lengte: 3-40-12E, hoogte: 19 m

Actueel weer

Dit bericht is 33 minuten geleden gemaakt, om 01:25 UTC
Wind 9 kt uit het oosten met uitschieters tot 10 kt
Temperatuur 16°C
Vochtigheid 88%
Druk 1020 hPa
Zicht: 8000 m

METAR: EHSC 260125Z AUTO 10009G10KT 8000 ///////// 16/14 Q1020 W17/H5

Tijdstip: 03:58 (01:58 UTC)


TAF: ontbreekt

Waarnemingen en weersverwachtingen van meer dan 4000 vliegvelden (METAR en TAF).

De beschikbare stations zijn de gele en rode punten op de kaart.

Ga met uw muis naar het station om de naam te zien.

Klik dan om waarnemingen en weersverwachtingen te zien.

kaart wijzigen: klik op de groene knoppen met een zwart kruis om in te zoomen, op de groene knop met een streepje om uit te zoomen of op de groene pijlen voor aangrenzende kaarten.


METAR-TAF: